Weather History for Enid, OK

Change the Weather History Date:

Monday, November 19, 2012

  Actual Average Record
Temperature  
Mean Temperature 58 °F -  
Max Temperature 71 °F 55 °F 77 °F (2007)
Min Temperature 44 °F 38 °F 30 °F (2000)
Degree Days  
Heating Degree Days 8    
Growing Degree Days 8 (Base 50)    
Moisture  
Dew Point 46 °F    
Average Humidity 82    
Maximum Humidity 100    
Minimum Humidity 53    
Precipitation  
Precipitation 0.00 in - - ()
Sea Level Pressure  
Sea Level Pressure 30.11 in    
Wind  
Wind Speed 6 mph (South)    
Max Wind Speed 14 mph    
Max Gust Speed -    
Visibility 9 miles    
Events Rain    
Averages and records for this station are not official NWS values.
T = Trace of Precipitation, MM = Missing Value Source: NWS Daily Summary

Daily Weather History Graph

Daily Weather History Graph

Search for Another Location

Airport:

Trip Planner

Search our weather history database for the weather conditions in past years. The results will help you decide how hot, cold, wet, or windy it might be!

Date:

Astronomy

Nov. 19, 2012 Rise Set
Actual Time 7:13 AM CST 5:20 PM CST
Civil Twilight 6:45 AM CST 5:47 PM CST
Nautical Twilight 6:13 AM CST 6:19 PM CST
Astronomical Twilight 5:43 AM CST 6:49 PM CST
Moon 12:20 PM CST (11/19) 11:43 PM CST (11/19)
Length of Visible Light 11h 02m
Length of Day
10h 07m
Waxing Crescent, 41% of the Moon is Illuminated
Nov 19
Waxing Crescent
Nov 20
First Quarter
Nov 28
Full
Dec 6
Last Quarter
Dec 13
New

Hourly Weather History & Observations

Time (CST) Temp. Windchill Dew Point Humidity Pressure Visibility Wind Dir Wind Speed Gust Speed Precip Events Conditions
12:15 AM 51.8 °F - 46.4 °F 82% 30.11 in 10.0 mi SSE 5.8 mph - N/A Rain Light Rain
12:35 AM 51.8 °F - 46.4 °F 82% 30.11 in 10.0 mi SSE 5.8 mph - N/A Rain Light Rain
12:55 AM 51.8 °F - 46.4 °F 82% 30.10 in 10.0 mi SSE 8.1 mph - N/A   Scattered Clouds
1:15 AM 51.8 °F - 46.4 °F 82% 30.09 in 10.0 mi SSE 9.2 mph - N/A   Scattered Clouds
1:35 AM 51.8 °F - 44.6 °F 76% 30.08 in 10.0 mi SSE 9.2 mph - N/A   Clear
1:55 AM 51.8 °F - 44.6 °F 76% 30.08 in 10.0 mi SSE 9.2 mph - N/A   Clear
2:35 AM 48.2 °F - 42.8 °F 82% 30.08 in 10.0 mi SSE 8.1 mph - N/A   Clear
2:55 AM 46.4 °F 43.5 °F 42.8 °F 87% 30.08 in 10.0 mi SE 5.8 mph - N/A   Clear
3:15 AM 46.4 °F 41.9 °F 42.8 °F 87% 30.07 in 10.0 mi SSE 9.2 mph - N/A   Clear
3:35 AM 46.4 °F 42.4 °F 42.8 °F 87% 30.07 in 10.0 mi SSE 8.1 mph - N/A   Clear
3:55 AM 46.4 °F 44.3 °F 42.8 °F 87% 30.07 in 10.0 mi SSE 4.6 mph - N/A   Clear
4:15 AM 46.4 °F 43.5 °F 42.8 °F 87% 30.07 in 10.0 mi SSE 5.8 mph - N/A   Clear
4:35 AM 46.4 °F 43.5 °F 42.8 °F 87% 30.07 in 10.0 mi South 5.8 mph - N/A   Clear
4:55 AM 44.6 °F 41.4 °F 41.0 °F 87% 30.07 in 10.0 mi South 5.8 mph - N/A   Clear
6:50 AM 46.4 °F 41.9 °F 41.0 °F 81% 30.09 in 10.0 mi South 9.2 mph - N/A   Scattered Clouds
7:50 AM 44.6 °F 41.4 °F 41.0 °F 87% 30.11 in 10.0 mi SSW 5.8 mph - N/A   Partly Cloudy
8:50 AM 51.8 °F - 44.6 °F 76% 30.12 in 10.0 mi South 9.2 mph - N/A   Clear
9:55 AM 59.0 °F - 48.2 °F 67% 30.12 in 10.0 mi SSW 13.8 mph - N/A   Scattered Clouds
10:50 AM 62.6 °F - 51.8 °F 68% 30.12 in 10.0 mi SSW 13.8 mph - N/A   Scattered Clouds
11:50 AM 66.2 °F - 53.6 °F 64% 30.11 in 10.0 mi SSW 10.4 mph - N/A   Scattered Clouds
12:50 PM 66.2 °F - 53.6 °F 64% 30.10 in 10.0 mi SSW 8.1 mph - N/A   Scattered Clouds
1:55 PM 69.8 °F - 51.8 °F 53% 30.10 in 10.0 mi Calm Calm - N/A   Scattered Clouds
2:50 PM 71.6 °F - 53.6 °F 53% 30.09 in 10.0 mi SW 5.8 mph - N/A   Scattered Clouds
4:50 PM 69.8 °F - 53.6 °F 56% 30.09 in 10.0 mi Calm Calm - N/A   Scattered Clouds
5:50 PM 60.8 °F - 53.6 °F 77% 30.10 in 10.0 mi Calm Calm - N/A   Scattered Clouds
6:50 PM 55.4 °F - 50.0 °F 82% 30.12 in 10.0 mi North 5.8 mph - N/A   Scattered Clouds
8:15 PM 50.0 °F - 46.4 °F 87% 30.14 in 10.0 mi Calm Calm - N/A   Clear
8:35 PM 50.0 °F - 46.4 °F 87% 30.14 in 10.0 mi North 4.6 mph - N/A   Clear
8:50 PM 50.0 °F - 48.2 °F 94% 30.14 in 10.0 mi Calm Calm - N/A   Clear
9:35 PM 50.0 °F - 46.4 °F 87% 30.14 in 10.0 mi Calm Calm - N/A   Clear
9:55 PM 48.2 °F - 46.4 °F 93% 30.14 in 7.0 mi Calm Calm - N/A   Clear
10:15 PM 46.4 °F 42.9 °F 44.6 °F 93% 30.14 in 3.0 mi North 6.9 mph - N/A   Clear
10:35 PM 46.4 °F 44.3 °F 46.4 °F 100% 30.14 in 7.0 mi North 4.6 mph - N/A   Clear
10:55 PM 48.2 °F - 46.4 °F 93% 30.14 in 5.0 mi North 3.5 mph - N/A   Clear
11:15 PM 46.4 °F - 46.4 °F 100% 30.14 in 5.0 mi Calm Calm - N/A   Clear
11:35 PM 48.2 °F - 46.4 °F 93% 30.14 in 5.0 mi Calm Calm - N/A   Clear
11:55 PM 44.6 °F - 44.6 °F 100% 30.13 in 4.0 mi Calm Calm - N/A   Clear